FW3936 Weather Reports


Display with metric or nautical units.
time (UTC)temp
F
wind
direction
speed
MPH
gust
MPH
rain 1hr
in
rain 24hr
in
rain mn
in
humidity
%
barometer
mb
20260508141531 60 348 0.0 0.0 0.00 0.00 0.00 76 1014.4
20260508140036 60 348 0.0 4.0 0.00 0.00 0.00 76 1014.2
20260508134528 60 348 1.0 7.0 0.00 0.00 0.00 76 1014.0
20260508133028 60 5 1.0 6.0 0.00 0.00 0.00 76 1013.8
20260508131526 60 5 1.0 4.0 0.00 0.00 0.00 76 1013.9
20260508130034 60 5 0.0 4.0 0.00 0.00 0.00 76 1013.9
20260508124533 60 5 1.0 3.0 0.00 0.00 0.00 76 1014.2
20260508123033 60 5 0.0 2.0 0.00 0.00 0.00 76 1014.0
20260508121523 60 5 0.0 4.0 0.00 0.00 0.00 76 1014.4
20260508120022 60 5 0.0 2.0 0.00 0.00 0.00 75 1014.2
20260508114525 60 5 1.0 5.0 0.00 0.00 0.00 75 1013.8
20260508113021 60 342 1.0 5.0 0.00 0.00 0.00 75 1014.2
20260508111520 60 343 0.0 6.0 0.00 0.00 0.00 75 1014.4
20260508110018 60 343 1.0 4.0 0.00 0.00 0.00 75 1014.3
20260508104518 60 342 0.0 4.0 0.00 0.00 0.00 75 1014.8
20260508103020 60 345 1.0 6.0 0.00 0.00 0.00 75 1014.4
20260508101519 60 339 0.0 4.0 0.00 0.00 0.00 75 1014.0
20260508100017 60 339 1.0 4.0 0.00 0.00 0.00 75 1014.1
20260508094537 59 338 1.0 4.0 0.00 0.00 0.00 76 1013.7
20260508093023 59 84 0.0 3.0 0.00 0.00 0.00 76 1013.7
20260508091531 59 286 0.0 4.0 0.00 0.00 0.00 75 1013.9
20260508090012 59 285 0.0 6.0 0.00 0.00 0.00 76 1014.1
20260508084510 59 42 0.0 4.0 0.00 0.00 0.00 76 1014.4
20260508083009 59 93 1.0 3.0 0.00 0.00 0.00 76 1014.6
20260508081524 60 93 0.0 0.0 0.00 0.00 0.00 76 1014.6
20260508080006 61 93 0.0 0.0 0.00 0.00 0.00 75 1014.2
20260508074503 61 93 0.0 0.0 0.00 0.00 0.00 72 1015.0
20260508073003 61 93 0.0 0.0 0.00 0.00 0.00 71 1014.9
20260508071505 61 93 0.0 0.0 0.00 0.00 0.00 71 1015.2
20260508070105 61 93 0.0 1.0 0.00 0.00 0.00 72 1015.0
20260508064600 61 93 0.0 5.0 0.00 0.00 0.00 71 1015.3
20260508063059 61 93 0.0 3.0 0.00 0.00 0.00 71 1014.9
20260508061558 61 38 2.0 5.0 0.00 0.00 0.00 72 1014.1
20260508060055 61 336 0.0 2.0 0.00 0.00 0.00 72 1015.3
20260508054607 61 336 1.0 3.0 0.00 0.00 0.00 72 1015.3
20260508053054 61 336 1.0 5.0 0.00 0.00 0.00 71 1015.5
20260508051552 62 337 0.0 3.0 0.00 0.00 0.00 71 1015.3
20260508050050 61 336 1.0 7.0 0.00 0.00 0.00 71 1015.6
20260508044556 61 286 1.0 7.0 0.00 0.00 0.00 72 1015.6
20260508043047 61 81 0.0 4.0 0.00 0.00 0.00 72 1014.6
20260508041546 61 82 2.0 6.0 0.00 0.00 0.00 72 1014.1
20260508040045 61 69 2.0 5.0 0.00 0.00 0.00 71 1014.3
20260508034545 62 69 2.0 4.0 0.00 0.00 0.00 71 1014.9
20260508033109 62 69 0.0 1.0 0.00 0.00 0.00 71 1015.5
20260508031543 62 69 0.0 1.0 0.00 0.00 0.00 70 1015.7
20260508030047 62 69 0.0 5.0 0.00 0.00 0.00 70 1016.0
20260508024545 62 73 1.0 4.0 0.00 0.00 0.00 71 1015.8
20260508023042 62 74 0.0 3.0 0.00 0.00 0.00 70 1016.0
20260508021542 62 75 0.0 0.0 0.00 0.00 0.00 69 1015.2
20260508020100 63 75 1.0 3.0 0.00 0.00 0.00 68 1014.2
20260508014539 63 75 0.0 3.0 0.00 0.00 0.00 67 1014.7
20260508013039 64 72 1.0 4.0 0.00 0.00 0.00 66 1013.8
20260508011543 64 326 1.0 4.0 0.00 0.00 0.00 65 1014.1
20260508010038 64 285 1.0 7.0 0.00 0.00 0.00 63 1013.9
20260508004537 64 90 2.0 15.0 0.00 0.00 0.00 63 1012.6
20260508003036 65 91 9.0 23.0 0.00 0.00 0.00 64 1012.2
20260508001545 65 87 4.0 8.0 0.00 0.00 0.00 64 1013.6
20260508000026 66 74 2.0 9.0 0.00 0.00 0.00 63 1014.4
20260507234526 66 80 4.0 7.0 0.00 0.00 0.00 60 1014.9
20260507233030 67 104 2.0 9.0 0.00 0.00 0.00 60 1015.1
20260507231524 68 92 2.0 6.0 0.00 0.00 0.00 60 1015.5
20260507230031 68 78 2.0 9.0 0.00 0.00 0.00 59 1015.7
20260507224529 69 69 2.0 7.0 0.00 0.00 0.00 58 1015.7
20260507223021 68 11 1.0 8.0 0.00 0.00 0.00 59 1015.8
20260507221524 68 5 1.0 9.0 0.00 0.00 0.00 61 1015.7
20260507220019 66 57 1.0 8.0 0.00 0.00 0.00 63 1015.8
20260507214514 67 44 1.0 9.0 0.00 0.00 0.00 61 1016.2
20260507213015 68 115 3.0 7.0 0.00 0.00 0.00 61 1016.0
20260507211527 67 5 0.0 7.0 0.00 0.00 0.00 63 1016.5
20260507210009 67 21 2.0 8.0 0.00 0.00 0.00 63 1016.3
20260507204507 67 64 2.0 8.0 0.00 0.00 0.00 61 1015.9
20260507203006 68 52 2.0 7.0 0.00 0.00 0.00 63 1016.2
20260507201504 68 344 3.0 10.0 0.00 0.00 0.00 66 1015.8
20260507200100 67 65 2.0 6.0 0.00 0.00 0.00 66 1016.0
20260507200002 67 22 2.0 6.0 0.00 0.00 0.00 66 1015.9
20260507194612 68 79 2.0 8.0 0.00 0.00 0.00 66 1016.2
20260507193054 66 324 2.0 9.0 0.00 0.00 0.00 71 1016.6
20260507191556 64 113 1.0 10.0 0.00 0.00 0.00 72 1016.4
20260507190048 63 109 4.0 9.0 0.00 0.00 0.00 74 1016.4
20260507184546 61 78 1.0 7.0 0.00 0.00 0.00 76 1016.6
20260507183052 61 71 2.0 7.0 0.00 0.00 0.00 76 1017.3
20260507181543 62 5 1.0 6.0 0.00 0.00 0.00 74 1017.4
20260507180049 62 70 2.0 7.0 0.00 0.00 0.00 72 1017.8
20260507174541 63 90 3.0 10.0 0.00 0.00 0.00 72 1018.0
20260507173050 62 360 2.0 10.0 0.00 0.00 0.00 73 1017.7
20260507171536 62 5 1.0 8.0 0.00 0.00 0.00 73 1017.5
20260507170045 61 84 1.0 8.0 0.00 0.00 0.00 74 1017.6
20260507164529 59 320 2.0 9.0 0.00 0.00 0.00 76 1017.9
20260507163027 58 15 1.0 9.0 0.00 0.00 0.00 76 1018.1
20260507161527 58 53 3.0 9.0 0.00 0.00 0.00 76 1017.8
20260507160025 58 303 2.0 12.0 0.00 0.00 0.00 76 1017.9
20260507154523 57 333 2.0 11.0 0.00 0.00 0.00 76 1017.7
20260507153021 57 315 3.0 12.0 0.00 0.00 0.00 76 1017.9
20260507151521 57 271 4.0 14.0 0.00 0.00 0.00 76 1017.5
20260507150018 57 36 3.0 12.0 0.00 0.00 0.00 76 1017.7
20260507144516 57 109 3.0 10.0 0.00 0.00 0.00 78 1017.5
20260507143014 56 324 2.0 9.0 0.00 0.00 0.00 75 1017.2